Del Norte, CO

3:49 PM MDT on July 28, 2016 (GMT -0600)
Wolf Creek Pass

Weather History for KCPW - December, 2013

Change the Weather History Date:

Thursday, December 19, 2013

  Actual Average (KALS) Record (KALS)
Temperature  
Mean Temperature 20 °F 17 °F  
Max Temperature 23 °F 34 °F 56 °F (1955)
Min Temperature 17 °F 1 °F -29 °F (1968)
Degree Days  
Heating Degree Days 45 48  
Month to date heating degree days 875  
Since 1 July heating degree days 3050  
Cooling Degree Days 0 0  
Month to date cooling degree days 0  
Year to date cooling degree days 51  
Moisture  
Dew Point 13 °F    
Average Humidity 75    
Maximum Humidity 100    
Minimum Humidity 46    
Precipitation  
Precipitation 0.00 in 0.02 in 0.09 in (2006)
Month to date precipitation 0.23  
Year to date precipitation 7.19  
Snow  
Snow 0.00 in 0.20 in 1.60 in (2006)
Month to date snowfall 2.9  
Since 1 July snowfall 8.7  
Snow Depth -    
Sea Level Pressure  
Sea Level Pressure 29.87 in    
Wind  
Wind Speed 21 mph (SW)    
Max Wind Speed 32 mph    
Max Gust Speed 48 mph    
Visibility 9 miles    
Events Snow    
T = Trace of Precipitation, MM = Missing Value Source: NWS Daily Summary

Daily Weather History Graph

Daily Weather History Graph

Search for Another Location

Airport or City:

Trip Planner

Search our weather history database for the weather conditions in past years. The results will help you decide how hot, cold, wet, or windy it might be!

Date:

Astronomy

Dec. 19, 2013 Rise Set
Actual Time 7:17 AM MST 4:51 PM MST
Civil Twilight 6:47 AM MST 5:21 PM MST
Nautical Twilight 6:15 AM MST 5:54 PM MST
Astronomical Twilight 5:43 AM MST 6:25 PM MST
Moon 7:17 PM MST (12/19) 8:39 AM MST (12/19)
Length of Visible Light 10h 33m
Length of Day
9h 34m
Waning Gibbous, 95% of the Moon is Illuminated
Dec 19
Waning Gibbous
Dec 25
Last Quarter
Jan 1
New
Jan 7
First Quarter
Jan 15
Full

Hourly Weather History & Observations

Time (MST) Temp. Windchill Dew Point Humidity Pressure Visibility Wind Dir Wind Speed Gust Speed Precip Events Conditions
12:13 AM 23.0 °F 5.7 °F 10.4 °F 59% 30.02 in 10.0 mi SW 28.8 mph 35.7 mph N/A   Clear
12:33 AM 21.2 °F 3.5 °F 8.6 °F 58% 30.00 in 10.0 mi SW 27.6 mph 35.7 mph N/A   Clear
12:53 AM 21.2 °F 4.2 °F 10.4 °F 63% 30.00 in 10.0 mi SW 25.3 mph 35.7 mph N/A   Clear
1:13 AM 19.4 °F -0.0 °F 8.6 °F 63% 29.99 in 10.0 mi SW 32.2 mph 35.7 mph N/A   Clear
1:33 AM 19.4 °F 1.8 °F 10.4 °F 68% 29.98 in 10.0 mi SW 25.3 mph 32.2 mph N/A   Clear
1:53 AM 21.2 °F 4.9 °F 8.6 °F 58% 29.98 in 10.0 mi SW 23.0 mph 27.6 mph N/A   Clear
2:13 AM 23.0 °F 6.6 °F 6.8 °F 50% 29.98 in 10.0 mi SW 25.3 mph 41.4 mph N/A   Mostly Cloudy
2:33 AM 23.0 °F 6.0 °F 8.6 °F 54% 29.98 in 10.0 mi SW 27.6 mph 35.7 mph N/A   Overcast
2:53 AM 23.0 °F 6.6 °F 5.0 °F 46% 29.99 in 10.0 mi SW 25.3 mph 36.8 mph N/A   Overcast
3:13 AM 23.0 °F 5.4 °F 8.6 °F 54% 29.99 in 10.0 mi SW 29.9 mph 48.3 mph N/A   Overcast
3:33 AM 23.0 °F 7.6 °F 8.6 °F 54% 29.98 in 10.0 mi WSW 21.9 mph 33.4 mph N/A   Overcast
3:53 AM 23.0 °F 10.6 °F 8.6 °F 54% 29.96 in 10.0 mi SW 13.8 mph 21.9 mph N/A   Mostly Cloudy
4:13 AM 21.2 °F 6.4 °F 6.8 °F 54% 29.94 in 10.0 mi SW 18.4 mph - N/A   Scattered Clouds
4:33 AM 21.2 °F 6.0 °F 8.6 °F 58% 29.92 in 10.0 mi SW 19.6 mph 27.6 mph N/A   Clear
4:53 AM 21.2 °F 5.6 °F 10.4 °F 63% 29.92 in 10.0 mi SW 20.7 mph 28.8 mph N/A   Clear
5:13 AM 21.2 °F 4.9 °F 8.6 °F 58% 29.91 in 10.0 mi SW 23.0 mph 33.4 mph N/A   Clear
5:33 AM 21.2 °F 4.9 °F 8.6 °F 58% 29.91 in 10.0 mi SW 23.0 mph 31.1 mph N/A   Scattered Clouds
5:53 AM 21.2 °F 5.6 °F 5.0 °F 50% 29.91 in 10.0 mi SW 20.7 mph 32.2 mph N/A   Scattered Clouds
6:13 AM 21.2 °F 6.0 °F 5.0 °F 50% 29.91 in 10.0 mi SW 19.6 mph 29.9 mph N/A   Clear
6:33 AM 19.4 °F 2.8 °F 6.8 °F 58% 29.91 in 10.0 mi SW 21.9 mph 32.2 mph N/A   Clear
6:53 AM 19.4 °F 5.5 °F 8.6 °F 63% 29.91 in 10.0 mi SW 15.0 mph 25.3 mph N/A   Clear
7:13 AM 19.4 °F 3.6 °F 8.6 °F 63% 29.90 in 10.0 mi SSW 19.6 mph 27.6 mph N/A   Clear
7:20 AM 19.4 °F 4.1 °F 8.6 °F 63% 29.90 in 10.0 mi SW 18.4 mph 27.6 mph N/A   Scattered Clouds
8:21 AM 19.4 °F 8.6 °F 10.4 °F 68% 29.90 in 10.0 mi SW 9.2 mph - N/A   Overcast
9:13 AM 19.4 °F 6.6 °F 10.4 °F 68% 29.91 in 10.0 mi SW 12.7 mph 18.4 mph N/A   Mostly Cloudy
9:33 AM 21.2 °F 7.8 °F 10.4 °F 63% 29.91 in 10.0 mi SW 15.0 mph 21.9 mph N/A   Mostly Cloudy
9:53 AM 21.2 °F 7.3 °F 10.4 °F 63% 29.90 in 10.0 mi SSW 16.1 mph 25.3 mph N/A   Mostly Cloudy
10:13 AM 21.2 °F 6.0 °F 10.4 °F 63% 29.90 in 10.0 mi SSW 19.6 mph 27.6 mph N/A   Overcast
10:33 AM 21.2 °F 6.4 °F 12.2 °F 68% 29.90 in 10.0 mi SW 18.4 mph 28.8 mph N/A   Overcast
10:53 AM 21.2 °F 6.4 °F 12.2 °F 68% 29.90 in 10.0 mi SW 18.4 mph 29.9 mph N/A   Overcast
11:13 AM 21.2 °F 8.9 °F 14.0 °F 74% 29.89 in 10.0 mi SSW 12.7 mph 28.8 mph N/A   Overcast
11:33 AM 21.2 °F 5.6 °F 14.0 °F 74% 29.87 in 10.0 mi SW 20.7 mph 31.1 mph N/A   Overcast
11:53 AM 21.2 °F 6.4 °F 14.0 °F 74% 29.86 in 10.0 mi SSW 18.4 mph 27.6 mph N/A   Overcast
12:13 PM 21.2 °F 6.8 °F 14.0 °F 74% 29.85 in 10.0 mi SW 17.3 mph 27.6 mph N/A   Overcast
12:33 PM 21.2 °F 7.8 °F 14.0 °F 74% 29.84 in 10.0 mi SSW 15.0 mph 27.6 mph N/A   Overcast
12:53 PM 21.2 °F 5.2 °F 14.0 °F 74% 29.82 in 10.0 mi SW 21.9 mph 31.1 mph N/A   Overcast
1:13 PM 19.4 °F 5.0 °F 14.0 °F 80% 29.82 in 10.0 mi SW 16.1 mph 28.8 mph N/A   Overcast
1:33 PM 21.2 °F 7.8 °F 14.0 °F 74% 29.81 in 7.0 mi SW 15.0 mph 29.9 mph N/A Snow Light Snow
1:53 PM 21.2 °F 6.8 °F 14.0 °F 74% 29.80 in 10.0 mi SW 17.3 mph 31.1 mph N/A   Overcast
2:13 PM 21.2 °F 6.8 °F 14.0 °F 74% 29.79 in 10.0 mi SSW 17.3 mph 28.8 mph N/A   Overcast
2:33 PM 21.2 °F 6.0 °F 14.0 °F 74% 29.79 in 10.0 mi SW 19.6 mph 32.2 mph N/A   Overcast
2:53 PM 21.2 °F 3.5 °F 15.8 °F 80% 29.78 in 10.0 mi SW 27.6 mph 35.7 mph N/A Snow Light Snow
3:13 PM 21.2 °F 4.2 °F 15.8 °F 80% 29.79 in 7.0 mi SW 25.3 mph 39.1 mph N/A Snow Light Snow
3:33 PM 21.2 °F 6.4 °F 15.8 °F 80% 29.79 in 10.0 mi SW 18.4 mph 38.0 mph N/A   Overcast
3:53 PM 21.2 °F 4.2 °F 17.6 °F 86% 29.80 in 10.0 mi SW 25.3 mph 32.2 mph N/A   Overcast
4:13 PM 19.4 °F 3.2 °F 17.6 °F 93% 29.80 in 10.0 mi SW 20.7 mph 36.8 mph N/A   Overcast
4:33 PM 19.4 °F 2.5 °F 17.6 °F 93% 29.80 in 10.0 mi SW 23.0 mph 26.5 mph N/A   Overcast
4:53 PM 19.4 °F 3.2 °F 17.6 °F 93% 29.81 in 10.0 mi SW 20.7 mph 32.2 mph N/A   Overcast
5:13 PM 19.4 °F 2.5 °F 17.6 °F 93% 29.82 in 10.0 mi SW 23.0 mph 31.1 mph N/A Snow Light Snow
5:33 PM 19.4 °F 5.0 °F 17.6 °F 93% 29.82 in 5.0 mi SW 16.1 mph 27.6 mph N/A Snow Light Snow
5:53 PM 19.4 °F 4.5 °F 15.8 °F 86% 29.81 in 10.0 mi SW 17.3 mph 31.1 mph N/A   Overcast
6:13 PM 17.6 °F 3.7 °F 15.8 °F 93% 29.82 in 10.0 mi SW 13.8 mph 25.3 mph N/A   Overcast
6:33 PM 17.6 °F 1.3 °F 15.8 °F 93% 29.83 in 10.0 mi SW 19.6 mph 29.9 mph N/A   Overcast
6:53 PM 17.6 °F 3.2 °F 15.8 °F 93% 29.84 in 10.0 mi SW 15.0 mph 25.3 mph N/A   Overcast
7:13 PM 17.6 °F 2.7 °F 15.8 °F 93% 29.83 in 10.0 mi SSW 16.1 mph 25.3 mph N/A   Overcast
7:33 PM 17.6 °F 2.2 °F 15.8 °F 93% 29.83 in 5.0 mi SW 17.3 mph 23.0 mph N/A Snow Light Snow
7:53 PM 17.6 °F 3.7 °F 15.8 °F 93% 29.83 in 10.0 mi SW 13.8 mph 21.9 mph N/A Snow Light Snow
8:13 PM 17.6 °F 2.7 °F 15.8 °F 93% 29.82 in 10.0 mi SW 16.1 mph 24.2 mph N/A   Overcast
8:33 PM 17.6 °F 3.2 °F 15.8 °F 93% 29.82 in 10.0 mi SW 15.0 mph 23.0 mph N/A   Overcast
8:53 PM 17.6 °F 3.2 °F 15.8 °F 93% 29.83 in 10.0 mi SSW 15.0 mph 24.2 mph N/A   Overcast
9:13 PM 17.6 °F 3.2 °F 15.8 °F 93% 29.83 in 10.0 mi SW 15.0 mph 20.7 mph N/A Snow Light Snow
9:33 PM 17.6 °F 5.0 °F 15.8 °F 93% 29.83 in 5.0 mi SW 11.5 mph 18.4 mph N/A Snow Light Snow
9:53 PM 17.6 °F 4.3 °F 15.8 °F 93% 29.82 in 2.5 mi SW 12.7 mph 18.4 mph N/A Snow Light Snow
10:13 PM 17.6 °F 3.7 °F 15.8 °F 93% 29.82 in 4.0 mi SW 13.8 mph 21.9 mph N/A Snow Light Snow
10:33 PM 17.6 °F 5.0 °F 17.6 °F 100% 29.82 in 1.8 mi SW 11.5 mph 21.9 mph N/A Snow Light Snow
10:53 PM 17.6 °F 3.2 °F 17.6 °F 100% 29.81 in 4.0 mi SSW 15.0 mph 20.7 mph N/A Snow Light Snow
11:13 PM 17.6 °F 5.7 °F 15.8 °F 93% 29.81 in 4.0 mi SSW 10.4 mph 23.0 mph N/A Snow Light Snow
11:33 PM 17.6 °F 4.3 °F 14.0 °F 86% 29.81 in 7.0 mi SSW 12.7 mph 21.9 mph N/A Snow Light Snow
11:52 PM 17.6 °F 2.7 °F 14.0 °F 86% 29.81 in 7.0 mi SW 16.1 mph 26.5 mph N/A Snow Light Snow